Regional Weather Roundup
Issued by NWS San Angelo, TX

Home | Current Version | Previous Version | Text Only | Print | Product List | Glossary On
Versions: 1 2 3 4 5 6 7 8 9 10 11 12 13 14 15 16 17 18 19 20 21 22 23 24 25 26 27 28 29 30 31 32 33 34 35 36 37 38 39 40 41 42 43 44 45 46 47 48 49 50
000
ASUS44 KSJT 280210
RWRSJT
WEST CENTRAL TEXAS REGIONAL WEATHER ROUNDUP
NATIONAL WEATHER SERVICE SAN ANGELO TX
800 PM CST THU NOV 27 2014

NOTE: "FAIR" INDICATES FEW OR NO CLOUDS BELOW 12,000 FEET WITH NO
SIGNIFICANT WEATHER AND/OR OBSTRUCTIONS TO VISIBILITY.

TXZ049-054-064>066-071>073-076>078-098-099-113-114-127-128-139-140-
154-155-168>170-280300
...LOCATIONS ACROSS WEST CENTRAL TEXAS...

CITY           SKY/WX    TMP DP  RH WIND       PRES   REMARKS
SAN ANGELO     CLEAR     51  33  50 S7        30.34R
ABILENE        CLEAR     47  33  58 SE8       30.34F
DYESS AFB      CLEAR     45  33  61 S9        30.32F
JUNCTION       CLEAR     53  33  46 CALM      30.37R
SWEETWATER     CLEAR     46  32  57 S9        30.35S
BROWNWOOD      PTCLDY    46  32  57 MISG      30.37S
COLEMAN        CLEAR     48  37  64 S5        30.36F
SONORA         CLEAR     54  30  40 S3        30.39S
OZONA          FAIR      45  30  57 SW3       30.37S
BRADY          CLEAR     48  30  49 SE6       30.36S
$$

TEXAS PANHANDLE/OKLAHOMA PANHANDLE

CITY           SKY/WX    TMP DP  RH WIND       PRES   REMARKS
AMARILLO       PTCLDY    47  30  51 S13       30.23S
BORGER         CLEAR     52  29  41 S14       30.20S
CANADIAN       PTCLDY    47  27  45 S9        30.21S
DALHART        PTCLDY    41  26  55 SW10      30.20S WCI  35
DUMAS            N/A     40  25  54 S9        30.19S WCI  34
GUYMON         NOT AVBL
HEREFORD       CLEAR     48  32  53 MISG      30.24R
PAMPA          CLEAR     45  29  53 S13       30.22S WCI  39
PERRYTON       PTCLDY    46  26  46 S13       30.17F WCI  40
$$

SOUTHERN PANHANDLE/SOUTH PLAINS/ROLLING PLAINS

CITY           SKY/WX    TMP DP  RH WIND       PRES   REMARKS
LUBBOCK        CLEAR     47  31  53 S10       30.27F
SNYDER         CLEAR     46  32  56 S7        30.32S
CHILDRESS      CLEAR     44  29  55 S8        30.29S WCI  39
SEMINOLE       CLEAR     44  29  56 S6        30.32S
$$

PERMIAN BASIN

CITY           SKY/WX    TMP DP  RH WIND       PRES   REMARKS
MIDLAND        CLEAR     55  28  35 S12       30.32R
ODESSA         CLEAR     54  28  36 S9        30.32S
WINK           CLEAR     50  27  40 SE8       30.29R
$$

FAR WEST/SOUTHWEST MOUNTAINS/TRANS PECOS

CITY           SKY/WX    TMP DP  RH WIND       PRES   REMARKS
ALPINE         CLEAR     45  21  38 SW7       30.40S
DRYDEN           N/A     51  34  52 NE6       30.33S
EL PASO        CLEAR     54  23  30 CALM      30.29R
FORT STOCKTON  CLEAR     53  30  41 S14       30.30S
GUADALUPE PASS NOT AVBL
MARFA          CLEAR     37  16  41 CALM      30.37S
PECOS          CLEAR     45  28  51 W5        30.29S
$$

DALLAS/FORT WORTH METROPLEX

CITY           SKY/WX    TMP DP  RH WIND       PRES   REMARKS
DFW AIRPORT    PTCLDY    48  26  42 S7        30.38S
FTW MEACHAM    CLEAR     47  27  45 SE7       30.38S
DAL-EXECUTIVE  CLEAR     50  25  37 S5        30.37F
GRAND PRAIRIE  CLEAR     51  33  49 S3        30.40F
ADDISON        CLEAR     52  21  30 S3        30.39F
MESQUITE       CLEAR     45  27  49 CALM      30.39F
LANCASTER      CLEAR     42  28  55 CALM      30.40S
$$

NORTH CENTRAL TEXAS

CITY           SKY/WX    TMP DP  RH WIND       PRES   REMARKS
SHRMAN/DENISON CLEAR     47  27  44 SE6       30.40S
GAINESVILLE    NOT AVBL
BRIDGEPORT     CLEAR     46  29  50 S7        30.38F
DENTON         CLEAR     44  24  45 SE3       30.38F
WAXAHACHIE     CLEAR     46  28  47 S3        30.40F
GRANBURY       CLEAR     50  28  42 SE3       30.40R
$$

WESTERN NORTH TEXAS

CITY           SKY/WX    TMP DP  RH WIND       PRES   REMARKS
WICHITA FALLS  CLEAR     41  28  60 SE9       30.32F WCI  35
VERNON         CLEAR     43  30  61 SE5       30.32F
BRECKENRIDGE   CLEAR     48  29  46 S9        30.35S
COMANCHE       CLEAR     47  32  56 S5        30.37F
$$

CENTRAL AND SOUTH CENTRAL TEXAS

CITY           SKY/WX    TMP DP  RH WIND       PRES   REMARKS
AUSTIN/BERGSTM CLEAR     42  36  79 CALM      30.41R
WACO           CLEAR     42  35  76 CALM      30.40F
HILLSBORO      CLEAR     49  27  41 CALM      30.40S HAZE
TEMPLE         CLEAR     48  27  43 CALM      30.40S
KILLEEN-GRAY   CLEAR     46  32  57 S6        30.39S
FORT HOOD      CLEAR     49  32  52 CALM      30.40S
GEORGETOWN     CLEAR     41  32  70 CALM      30.41S
LAGO VISTA     FAIR      51  32  47 CALM      30.41R
SAN MARCOS     CLEAR     50  30  46 CALM      30.42S
NEW BRAUNFELS  CLEAR     51  34  52 E3        30.40R
RANDOLPH AFB   CLEAR     50  37  59 NE2       30.41R
SAN ANTONIO    CLEAR     55  35  47 CALM      30.41R
STINSON        CLEAR     51  39  63 CALM      30.39S
PLEASANTON     NOT AVBL
LA GRANGE      CLEAR     48  41  75 CALM      30.40S
GIDDINGS       CLEAR     47  36  65 CALM      30.45R
$$

EAST TEXAS

CITY           SKY/WX    TMP DP  RH WIND       PRES   REMARKS
PARIS          CLEAR     43  25  49 E9        30.42S WCI  37
CLARKSVILLE    NOT AVBL
TYLER          CLEAR     47  27  45 SE6       30.41S
LONGVIEW       CLEAR     47  30  51 E6        30.42S
PALESTINE      CLEAR     44  37  79 CALM      30.42S HAZE
NACOGDOCHES    CLEAR     41  34  75 CALM      30.43S
$$

TEXAS HILL COUNTRY AND EDWARDS PLATEAU

CITY           SKY/WX    TMP DP  RH WIND       PRES   REMARKS
LLANO          CLEAR     45  36  70 CALM      30.43S
HORSESHOE BAY  FAIR      46  32  59 CALM      30.40S
KERRVILLE      CLEAR     47  34  62 CALM      30.40S
FREDERICKSBRG  CLEAR     46  33  61 CALM      30.39S
ROCKSPRINGS    CLEAR     52  32  46 MISG      30.39S
HONDO          CLEAR     52  35  52 E6        30.42R
UVALDE         CLEAR     52  37  56 E6        30.40S
DEL RIO        CLEAR     59  37  44 E9        30.35R
$$

SOUTHEAST TEXAS

CITY           SKY/WX    TMP DP  RH WIND       PRES   REMARKS
COLLEGE STN    CLEAR     51  33  50 E3        30.42R
CALDWELL       CLEAR     45  34  65 CALM      30.45R
CROCKETT       CLEAR     45  41  87 CALM      30.45S
BRENHAM        CLEAR     50  36  57 CALM      30.43R
HUNTSVILLE     CLEAR     48  35  60 CALM      30.42R
CONROE         CLEAR     44  39  82 CALM      30.43S
HOUSTON BUSH   CLEAR     47  40  76 CALM      30.42S
HOUSTON HOBBY  CLEAR     50  40  68 S3        30.42S
PERLAND        CLEAR     50  40  68 CALM      30.44R
WHARTON        CLEAR     51  37  57 SE5       30.43S
$$

THE UPPER TEXAS COAST

CITY           SKY/WX    TMP DP  RH WIND       PRES   REMARKS
ORANGE         CLEAR     45  41  86 CALM      30.45S
PORT ARTHUR    CLEAR     49  38  65 NE3       30.43S
GALVESTON      CLEAR     55  43  63 SE5       30.44R
ANGLETON       CLEAR     45  42  89 CALM      30.43S
BAY CITY         N/A     50  38  64 SE3       30.43R
$$

TEXAS COASTAL BEND, RIO GRANDE PLAINS DEEP SOUTH TEXAS

CITY           SKY/WX    TMP DP  RH WIND       PRES   REMARKS
VICTORIA       CLEAR     52  44  74 SE6       30.43R
BEEVILLE       FAIR      53  46  75 SE6       30.41S
ROCKPORT       CLEAR     60  53  77 E9        30.41S
PORT ARANSAS   CLEAR     63  57  81 E10       30.40S
PORT LAVACA    CLEAR     55  51  86 E7        30.42S
CORPUS CHRISTI PTCLDY    60  55  83 E9        30.40R
KINGSVILLE NAS CLEAR     60  57  89 E8        30.40R
COTULLA        CLEAR     58  39  49 E8        30.38S
LAREDO         CLEAR     62  44  51 E7        30.39R
BROWNSVILLE    CLEAR     60  57  89 NE3       30.39R
PORT ISABEL    CLEAR     62  58  86 NE5       30.38R
HEBBRONVILLE   CLEAR     59  51  73 E7        30.39R
MCALLEN        CLEAR     64  55  72 E8        30.39R
WESLACO        CLEAR     63  57  81 E6        30.38S
FALFURRIAS     CLEAR     59  54  83 NE5       30.38S
EDINBURG       CLEAR     64  58  82 E7        30.38S
$$



USA.gov is the U.S. government's official web portal to all federal, state and local government web resources and services.